This is the latest recevied weather packets stored in our database for station/object LZ1ASO-10. If no packets are shown the sender has not sent any weather packets the latest 10 day(s).
| Time | Temp. | Humidity | Pressure | Rain* | Wind** | Luminosity | Snow |
|---|---|---|---|---|---|---|---|
| 1777978669 | 22.78° C | 28% | 1017.3 hPa | - | - | - | - |
| 1777977769 | 22.78° C | 28% | 1017.3 hPa | - | - | - | - |
| 1777976869 | 22.22° C | 29% | 1017.4 hPa | - | - | - | - |
| 1777975969 | 22.22° C | 29% | 1017.4 hPa | - | - | - | - |
| 1777975068 | 21.67° C | 29% | 1017.4 hPa | - | - | - | - |
| 1777974168 | 21.11° C | 30% | 1017.5 hPa | - | - | - | - |
| 1777973268 | 21.11° C | 29% | 1017.4 hPa | - | - | - | - |
| 1777972368 | 20.56° C | 30% | 1017.5 hPa | - | - | - | - |
| 1777971468 | 20.56° C | 31% | 1017.4 hPa | - | - | - | - |
| 1777970568 | 20° C | 31% | 1017.6 hPa | - | - | - | - |
| 1777969668 | 20° C | 31% | 1017.4 hPa | - | - | - | - |
| 1777968768 | 19.44° C | 31% | 1017.5 hPa | - | - | - | - |
| 1777967867 | 19.44° C | 31% | 1017.5 hPa | - | - | - | - |
| 1777966967 | 19.44° C | 32% | 1017.4 hPa | - | - | - | - |
| 1777966067 | 18.89° C | 32% | 1017.4 hPa | - | - | - | - |
| 1777965167 | 18.33° C | 33% | 1017.4 hPa | - | - | - | - |
| 1777964267 | 17.78° C | 34% | 1017.2 hPa | - | - | - | - |
| 1777963367 | 17.78° C | 35% | 1017.2 hPa | - | - | - | - |
| 1777962467 | 17.22° C | 35% | 1017.2 hPa | - | - | - | - |
| 1777961567 | 16.67° C | 35% | 1017.1 hPa | - | - | - | - |
| 1777960667 | 16.11° C | 36% | 1017 hPa | - | - | - | - |
| 1777959766 | 15.56° C | 36% | 1016.9 hPa | - | - | - | - |
| 1777958866 | 15.56° C | 37% | 1016.8 hPa | - | - | - | - |
| 1777957966 | 15° C | 38% | 1016.7 hPa | - | - | - | - |
| 1777957066 | 15° C | 37% | 1016.6 hPa | - | - | - | - |
* Rain since midnight (hover to see other rain measurements)
** Current wind speed in m/s (hover to see current wind gust speed)